Time,TemperatureF,DewpointF,PressureIn,WindDirection,WindDirectionDegrees,WindSpeedMPH,WindSpeedGustMPH,Humidity,HourlyPrecipIn,Conditions,Clouds,dailyrainin,SoftwareType,DateUTC
2013-02-28 00:04:00,31.9,28.0,30.03,WNW,289,0.0,0.0,84,0.00,,,0.00,weatherlink.com 1.10,2013-02-28 06:04:00,
2013-02-28 00:19:00,32.0,28.0,30.03,NW,306,0.0,0.0,84,0.00,,,0.00,weatherlink.com 1.10,2013-02-28 06:19:00,
2013-02-28 00:34:00,32.1,28.0,30.03,NNW,335,0.0,0.0,84,0.00,,,0.00,weatherlink.com 1.10,2013-02-28 06:34:00,
2013-02-28 00:49:00,32.1,28.0,30.03,NNW,330,0.0,0.0,85,0.00,,,0.00,weatherlink.com 1.10,2013-02-28 06:49:00,
2013-02-28 01:04:00,32.0,28.0,30.03,WNW,301,0.0,0.0,85,0.00,,,0.00,weatherlink.com 1.10,2013-02-28 07:04:00,
2013-02-28 01:19:00,31.8,28.0,30.03,WNW,300,0.0,0.0,85,0.00,,,0.00,weatherlink.com 1.10,2013-02-28 07:19:00,
2013-02-28 01:34:00,31.6,28.0,30.03,NW,304,0.0,0.0,86,0.00,,,0.00,weatherlink.com 1.10,2013-02-28 07:34:00,
2013-02-28 01:49:00,31.4,28.0,30.03,NW,306,0.0,0.0,86,0.00,,,0.00,weatherlink.com 1.10,2013-02-28 07:49:00,
2013-02-28 02:05:00,31.3,27.0,30.04,NW,311,0.0,0.0,85,0.00,,,0.00,weatherlink.com 1.10,2013-02-28 08:05:00,
2013-02-28 02:20:00,31.2,27.0,30.04,WNW,301,0.0,0.0,84,0.00,,,0.00,weatherlink.com 1.10,2013-02-28 08:20:00,
2013-02-28 02:35:00,31.0,27.0,30.04,WNW,288,0.0,0.0,84,0.00,,,0.00,weatherlink.com 1.10,2013-02-28 08:35:00,
2013-02-28 02:50:00,30.9,27.0,30.04,North,8,0.0,0.0,84,0.00,,,0.00,weatherlink.com 1.10,2013-02-28 08:50:00,
2013-02-28 03:05:00,30.8,26.0,30.04,WNW,297,0.0,0.0,83,0.00,,,0.00,weatherlink.com 1.10,2013-02-28 09:05:00,
2013-02-28 03:20:00,30.7,26.0,30.04,WNW,300,0.0,0.0,84,0.00,,,0.00,weatherlink.com 1.10,2013-02-28 09:20:00,
2013-02-28 03:35:00,30.5,26.0,30.04,WNW,283,0.0,0.0,84,0.00,,,0.00,weatherlink.com 1.10,2013-02-28 09:35:00,
2013-02-28 03:50:00,30.4,26.0,30.05,West,280,0.0,0.0,83,0.00,,,0.00,weatherlink.com 1.10,2013-02-28 09:50:00,
2013-02-28 04:05:00,30.1,26.0,30.05,NW,309,0.0,0.0,85,0.00,,,0.00,weatherlink.com 1.10,2013-02-28 10:05:00,
2013-02-28 04:20:00,30.0,26.0,30.05,NW,316,0.0,0.0,85,0.00,,,0.00,weatherlink.com 1.10,2013-02-28 10:20:00,
2013-02-28 04:35:00,29.9,26.0,30.05,West,271,0.0,0.0,85,0.00,,,0.00,weatherlink.com 1.10,2013-02-28 10:35:00,
2013-02-28 04:50:00,29.6,26.0,30.06,NW,318,0.0,0.0,85,0.00,,,0.00,weatherlink.com 1.10,2013-02-28 10:50:00,
2013-02-28 05:05:00,29.6,26.0,30.06,NW,307,0.0,0.0,85,0.00,,,0.00,weatherlink.com 1.10,2013-02-28 11:05:00,
2013-02-28 05:20:00,29.5,26.0,30.07,West,271,0.0,0.0,86,0.00,,,0.00,weatherlink.com 1.10,2013-02-28 11:20:00,
2013-02-28 05:35:00,29.4,26.0,30.08,WNW,284,0.0,0.0,85,0.00,,,0.00,weatherlink.com 1.10,2013-02-28 11:35:00,
2013-02-28 05:50:00,29.2,25.0,30.08,WNW,283,0.0,0.0,85,0.00,,,0.00,weatherlink.com 1.10,2013-02-28 11:50:00,
2013-02-28 06:05:00,28.5,25.0,30.09,WNW,302,0.0,0.0,85,0.00,,,0.00,weatherlink.com 1.10,2013-02-28 12:05:00,
2013-02-28 06:20:00,28.0,24.0,30.09,NNW,335,0.0,0.0,85,0.00,,,0.00,weatherlink.com 1.10,2013-02-28 12:20:00,
2013-02-28 06:35:00,27.8,24.0,30.10,NW,309,0.0,0.0,85,0.00,,,0.00,weatherlink.com 1.10,2013-02-28 12:35:00,
2013-02-28 06:50:00,27.8,24.0,30.11,NW,307,0.0,0.0,85,0.00,,,0.00,weatherlink.com 1.10,2013-02-28 12:50:00,
2013-02-28 07:05:00,27.7,24.0,30.11,WNW,302,0.0,0.0,85,0.00,,,0.00,weatherlink.com 1.10,2013-02-28 13:05:00,
2013-02-28 07:20:00,27.5,24.0,30.12,WNW,284,0.0,0.0,85,0.00,,,0.00,weatherlink.com 1.10,2013-02-28 13:20:00,
2013-02-28 07:35:00,27.3,23.0,30.13,WNW,300,0.0,0.0,85,0.00,,,0.00,weatherlink.com 1.10,2013-02-28 13:35:00,
2013-02-28 07:50:00,27.2,23.0,30.13,WNW,284,0.0,0.0,85,0.00,,,0.00,weatherlink.com 1.10,2013-02-28 13:50:00,
2013-02-28 08:05:00,27.4,24.0,30.13,NW,314,0.0,0.0,85,0.00,,,0.00,weatherlink.com 1.10,2013-02-28 14:05:00,
2013-02-28 08:20:00,27.5,24.0,30.14,NNW,335,0.0,0.0,85,0.00,,,0.00,weatherlink.com 1.10,2013-02-28 14:20:00,
2013-02-28 08:35:00,27.8,24.0,30.14,WSW,253,0.0,0.0,85,0.00,,,0.00,weatherlink.com 1.10,2013-02-28 14:35:00,
2013-02-28 08:50:00,28.0,24.0,30.14,NNW,340,0.0,0.0,84,0.00,,,0.00,weatherlink.com 1.10,2013-02-28 14:50:00,
2013-02-28 09:05:00,28.2,24.0,30.14,NW,321,0.0,0.0,84,0.00,,,0.00,weatherlink.com 1.10,2013-02-28 15:05:00,
2013-02-28 09:20:00,28.3,24.0,30.15,NW,318,0.0,0.0,83,0.00,,,0.00,weatherlink.com 1.10,2013-02-28 15:20:00,
2013-02-28 09:35:00,28.8,25.0,30.15,NW,309,0.0,0.0,84,0.00,,,0.00,weatherlink.com 1.10,2013-02-28 15:35:00,
2013-02-28 09:50:00,28.9,24.0,30.15,NNW,332,0.0,0.0,83,0.00,,,0.00,weatherlink.com 1.10,2013-02-28 15:50:00,
2013-02-28 10:05:00,29.0,25.0,30.16,West,270,0.0,0.0,83,0.00,,,0.00,weatherlink.com 1.10,2013-02-28 16:05:00,
2013-02-28 10:21:00,29.4,25.0,30.16,NW,306,0.0,0.0,83,0.00,,,0.00,weatherlink.com 1.10,2013-02-28 16:21:00,
2013-02-28 10:51:00,29.8,25.0,30.16,WSW,243,0.0,0.0,81,0.00,,,0.00,weatherlink.com 1.10,2013-02-28 16:51:00,
2013-02-28 11:06:00,29.9,25.0,30.16,WNW,297,0.0,0.0,82,0.00,,,0.00,weatherlink.com 1.10,2013-02-28 17:06:00,
2013-02-28 11:21:00,30.0,25.0,30.16,NW,322,0.0,0.0,82,0.00,,,0.00,weatherlink.com 1.10,2013-02-28 17:21:00,
2013-02-28 11:36:00,30.1,25.0,30.17,WNW,297,0.0,0.0,82,0.00,,,0.00,weatherlink.com 1.10,2013-02-28 17:36:00,
2013-02-28 11:51:00,30.5,25.0,30.17,WNW,298,0.0,0.0,81,0.00,,,0.00,weatherlink.com 1.10,2013-02-28 17:51:00,
2013-02-28 12:06:00,30.6,25.0,30.17,NW,306,0.0,0.0,81,0.00,,,0.00,weatherlink.com 1.10,2013-02-28 18:06:00,
2013-02-28 12:21:00,30.7,26.0,30.17,NW,320,0.0,0.0,81,0.00,,,0.00,weatherlink.com 1.10,2013-02-28 18:21:00,
2013-02-28 12:36:00,30.8,26.0,30.17,NW,307,0.0,0.0,81,0.00,,,0.00,weatherlink.com 1.10,2013-02-28 18:36:00,
2013-02-28 12:51:00,31.0,26.0,30.17,North,349,0.0,0.0,81,0.00,,,0.00,weatherlink.com 1.10,2013-02-28 18:51:00,
2013-02-28 13:06:00,30.9,26.0,30.16,NNW,330,0.0,0.0,81,0.00,,,0.00,weatherlink.com 1.10,2013-02-28 19:06:00,
2013-02-28 13:21:00,30.7,26.0,30.16,NNW,343,0.0,0.0,82,0.00,,,0.00,weatherlink.com 1.10,2013-02-28 19:21:00,
2013-02-28 13:36:00,30.6,26.0,30.16,WNW,298,0.0,0.0,82,0.00,,,0.00,weatherlink.com 1.10,2013-02-28 19:36:00,
2013-02-28 13:51:00,30.6,26.0,30.16,WNW,300,0.0,0.0,83,0.00,,,0.00,weatherlink.com 1.10,2013-02-28 19:51:00,
2013-02-28 14:06:00,30.6,26.0,30.16,NW,326,0.0,0.0,82,0.00,,,0.00,weatherlink.com 1.10,2013-02-28 20:06:00,
2013-02-28 14:21:00,30.8,26.0,30.16,WNW,298,0.0,0.0,83,0.00,,,0.00,weatherlink.com 1.10,2013-02-28 20:21:00,
2013-02-28 14:36:00,30.7,26.0,30.16,WNW,290,0.0,0.0,83,0.00,,,0.00,weatherlink.com 1.10,2013-02-28 20:36:00,
2013-02-28 14:51:00,30.5,26.0,30.16,NW,315,0.0,0.0,82,0.00,,,0.00,weatherlink.com 1.10,2013-02-28 20:51:00,
2013-02-28 15:06:00,31.3,26.0,30.16,WNW,287,0.0,0.0,81,0.00,,,0.00,weatherlink.com 1.10,2013-02-28 21:06:00,
2013-02-28 15:21:00,32.2,26.0,30.16,NW,309,0.0,0.0,79,0.00,,,0.00,weatherlink.com 1.10,2013-02-28 21:21:00,
2013-02-28 15:36:00,32.2,26.0,30.16,WNW,302,0.0,0.0,78,0.01,,,0.01,weatherlink.com 1.10,2013-02-28 21:36:00,
2013-02-28 15:51:00,31.7,26.0,30.16,WNW,300,0.0,0.0,79,0.01,,,0.01,weatherlink.com 1.10,2013-02-28 21:51:00,
2013-02-28 16:06:00,31.6,26.0,30.16,NW,307,0.0,0.0,79,0.01,,,0.01,weatherlink.com 1.10,2013-02-28 22:06:00,
2013-02-28 16:21:00,31.2,25.0,30.16,NW,306,0.0,0.0,79,0.01,,,0.01,weatherlink.com 1.10,2013-02-28 22:21:00,
2013-02-28 16:36:00,31.2,26.0,30.16,WNW,296,0.0,0.0,80,0.00,,,0.01,weatherlink.com 1.10,2013-02-28 22:36:00,
2013-02-28 16:51:00,31.0,26.0,30.16,WNW,302,0.0,0.0,80,0.00,,,0.01,weatherlink.com 1.10,2013-02-28 22:51:00,
2013-02-28 17:06:00,31.0,26.0,30.16,NW,307,0.0,0.0,81,0.00,,,0.01,weatherlink.com 1.10,2013-02-28 23:06:00,
2013-02-28 17:21:00,31.0,26.0,30.16,WNW,300,0.0,0.0,82,0.00,,,0.01,weatherlink.com 1.10,2013-02-28 23:21:00,
2013-02-28 17:36:00,30.9,26.0,30.16,WNW,291,0.0,0.0,82,0.00,,,0.01,weatherlink.com 1.10,2013-02-28 23:36:00,
2013-02-28 17:51:00,30.8,26.0,30.17,WNW,300,0.0,0.0,83,0.00,,,0.01,weatherlink.com 1.10,2013-02-28 23:51:00,
2013-02-28 18:06:00,30.6,26.0,30.18,NW,304,0.0,0.0,84,0.00,,,0.01,weatherlink.com 1.10,2013-03-01 00:06:00,
2013-02-28 18:21:00,30.5,26.0,30.18,WNW,295,0.0,0.0,84,0.00,,,0.01,weatherlink.com 1.10,2013-03-01 00:21:00,
2013-02-28 18:38:00,30.3,26.0,30.18,WNW,293,0.0,0.0,84,0.00,,,0.01,weatherlink.com 1.10,2013-03-01 00:38:00,
2013-02-28 18:51:00,30.2,26.0,30.18,West,277,0.0,0.0,83,0.00,,,0.01,weatherlink.com 1.10,2013-03-01 00:51:00,
2013-02-28 19:06:00,30.1,26.0,30.18,WNW,287,0.0,0.0,84,0.00,,,0.01,weatherlink.com 1.10,2013-03-01 01:06:00,
2013-02-28 19:21:00,30.0,26.0,30.18,WNW,294,0.0,0.0,84,0.00,,,0.01,weatherlink.com 1.10,2013-03-01 01:21:00,
2013-02-28 19:36:00,29.9,26.0,30.18,WNW,299,0.0,0.0,84,0.00,,,0.01,weatherlink.com 1.10,2013-03-01 01:36:00,
2013-02-28 19:51:00,29.9,26.0,30.18,WNW,300,0.0,0.0,85,0.00,,,0.01,weatherlink.com 1.10,2013-03-01 01:51:00,
2013-02-28 20:06:00,29.8,26.0,30.18,NW,310,0.0,0.0,85,0.00,,,0.01,weatherlink.com 1.10,2013-03-01 02:06:00,
2013-02-28 20:21:00,29.7,26.0,30.18,NW,311,0.0,0.0,85,0.00,,,0.01,weatherlink.com 1.10,2013-03-01 02:21:00,
2013-02-28 20:36:00,29.6,26.0,30.18,WNW,298,0.0,0.0,85,0.00,,,0.01,weatherlink.com 1.10,2013-03-01 02:36:00,
2013-02-28 20:51:00,29.6,26.0,30.18,WNW,297,0.0,0.0,85,0.00,,,0.01,weatherlink.com 1.10,2013-03-01 02:51:00,
2013-02-28 21:06:00,29.6,26.0,30.19,WNW,298,0.0,0.0,85,0.00,,,0.01,weatherlink.com 1.10,2013-03-01 03:06:00,
2013-02-28 21:21:00,29.6,26.0,30.19,NW,309,0.0,0.0,85,0.00,,,0.01,weatherlink.com 1.10,2013-03-01 03:21:00,
2013-02-28 21:36:00,29.5,25.0,30.19,WNW,288,0.0,0.0,84,0.00,,,0.01,weatherlink.com 1.10,2013-03-01 03:36:00,
2013-02-28 21:51:00,29.5,26.0,30.18,NW,309,0.0,0.0,85,0.00,,,0.01,weatherlink.com 1.10,2013-03-01 03:51:00,
2013-02-28 22:06:00,29.5,25.0,30.19,WNW,288,0.0,0.0,84,0.00,,,0.01,weatherlink.com 1.10,2013-03-01 04:06:00,
2013-02-28 22:21:00,29.5,25.0,30.19,WNW,293,0.0,0.0,84,0.00,,,0.01,weatherlink.com 1.10,2013-03-01 04:21:00,
2013-02-28 22:36:00,29.5,25.0,30.18,NW,316,0.0,0.0,84,0.00,,,0.01,weatherlink.com 1.10,2013-03-01 04:36:00,
2013-02-28 22:51:00,29.4,26.0,30.18,WNW,294,0.0,0.0,85,0.00,,,0.01,weatherlink.com 1.10,2013-03-01 04:51:00,
2013-02-28 23:06:00,29.4,25.0,30.18,WNW,298,0.0,0.0,84,0.00,,,0.01,weatherlink.com 1.10,2013-03-01 05:06:00,
2013-02-28 23:21:00,29.4,25.0,30.18,WNW,289,0.0,0.0,84,0.00,,,0.01,weatherlink.com 1.10,2013-03-01 05:21:00,
2013-02-28 23:36:00,29.5,25.0,30.17,NW,306,0.0,0.0,84,0.00,,,0.01,weatherlink.com 1.10,2013-03-01 05:36:00,
2013-02-28 23:51:00,29.4,26.0,30.17,WNW,301,0.0,0.0,85,0.00,,,0.01,weatherlink.com 1.10,2013-03-01 05:51:00,